Torna al catalogo

BREEZE-M R/B

AttivoHEO
NORAD 41311·ROCKET BODY·🇷🇺 Russia

Lanciato Jan 29, 2016 da Baikonur Cosmodrome

Loading…

Prossimi Passaggi (prossime 24 ore)

TLE

AggiornatoSource: Space-Track

Epoca: Sep 14, 2026, 04:51 UTC

1 41311U 16005B   26257.20266432 -.00000079  00000-0  00000-0 0  9996
2 41311  12.6839  78.5508 5961341   8.5801 358.2781  2.17160114 84273

Traccia BREEZE-M R/B in tempo reale con AllMySat

Download on the App Store